{"data":{"norad_id":61201,"intl_designator":"2024-171B","name":"STARLINK-11257 [DTC]","alt_names":[],"object_type":"PAYLOAD","status":"ACTIVE","operator":null,"country":"US","launch_date":"2024-09-20","launch_site_code":"AFWTR","launch_vehicle":null,"mission":null,"orbit_class":"UNKNOWN","rcs_meters":null,"size_class":null,"mass_kg":null,"dimensions":null,"purposes":["comms"],"wikipedia_slug":null,"has_3d_model":false,"image_url":null,"decayed_at":null,"tle_current":{"epoch":"2026-05-25T01:43:43.130208Z","epoch_age_seconds":61985,"freshness":"FRESH","line1":"1 61201U 24171B   26145.07202697  .00002046  00000+0  21738-4 0  9992","line2":"2 61201  53.1578 159.8579 0000763  87.5378 272.5727 15.69711867 96399","mean_motion":15.69711867,"eccentricity":7.63e-5,"inclination_deg":53.1578,"raan_deg":159.8579,"arg_perigee_deg":87.5378,"mean_anomaly_deg":272.5727,"bstar":2.1738e-5,"rev_number":9639,"period_min":91.736581105939,"perigee_km":359.20730918921,"apogee_km":360.23550638224,"semimajor_km":6737.8584077857,"source":"CELESTRAK","updated_at":"2026-05-25T13:38:19.358166Z"}}}